Tracking 18840 objects as of 19-November-2017
HD Live streaming from Space Station
objects crossing your sky now

VANGUARD R/B

Track VANGUARD R/B now!
10-day predictions


NORAD ID: 16
Int'l Code: 1958-002A
Perigee: 662.5 km
Apogee: 4,229.6 km
Inclination: 34.3 °
Period: 137.3 minutes
Semi major axis: 8817 km
RCS: 0.2285 m2 (medium)
Launch date: March 17, 1958
Source: United States (US)
Launch site: AIR FORCE EASTERN TEST RANGE (AFETR)

Note: This is a ROCKET BODY
aabbcc
Your satellite tracking list
Your tracking list is empty




NASA's NSSDC Master Catalog

Two Line Element Set (TLE):
1    16U 58002A   17322.01452275 +.00000021 +00000-0 +24644-5 0  9991
2    16 034.2741 355.7725 2022835 224.1525 117.8844 10.48623970359894
Source of the keplerian elements: AFSPC